Location: Ives Corner
(42.6856°N, 73.5257°W)
Time: 06:03:06
(UTC+00:00)

Daily predictions for brighter satellites

Satellite Brightness Start Highest point End
(mag) Time Altitude Azimuth Time Altitude Azimuth Time Altitude Azimuth
CZ-4C R/B 3.9 21:47:33 10° SE 21:49:30 12° ESE 21:51:33 10° E
H-2A R/B 3.4 21:46:30 10° SE 21:49:47 31° ENE 21:53:05 10° N
STARLINK-52 4.3 21:46:36 10° W 21:49:51 35° NNW 21:53:07 10° NE
Abrixas rocket 2.8 21:48:52 10° SW 21:51:43 40° SE 21:54:34 10° ENE
Genesis I 3.2 21:48:54 10° NNW 21:52:48 88° NE 21:56:38 10° SSE
Cosmos 1666 2.6 21:54:54 10° N 21:58:37 63° E 22:02:18 10° SSE
YAOGAN 6 4.3 21:57:59 10° E 21:59:54 14° ENE 22:01:49 10° NNE
Okean 1-7 3.4 21:56:23 10° SSE 22:00:31 45° E 22:04:42 10° NNE
Aureole 1 Rocket 2.6 21:57:54 10° SSW 22:00:53 67° WNW 22:04:16 10° NNE
SMAP 3.2 21:56:35 10° SSE 22:01:06 53° ENE 22:05:39 10° N
Okean O Rocket 2.5 21:57:00 10° S 22:01:13 53° W 22:05:30 10° NNW
CZ-4 R/B 3.1 21:59:55 10° E 22:01:33 12° ENE 22:03:10 10° NE
Cosmos 1908 Rocket 3.5 22:04:57 10° N 22:09:22 85° E 22:13:42 10° S
COBE Rocket 3.8 22:05:18 10° NNE 22:09:57 64° E 22:14:41 10° S
Cosmos 2242 Rocket 4.1 22:05:36 10° SSW 22:10:09 68° W 22:14:44 10° N
STARLINK-48 4.1 22:06:53 10° SSW 22:10:32 40° SE 22:13:43 13° ENE
CZ-4B R/B 4.2 22:09:08 10° NNW 22:11:26 17° WNW 22:13:42 10° WSW
Cosmos 1975 3.8 22:09:11 10° NNE 22:12:31 25° ENE 22:15:50 10° SE
ALOS 4.4 22:10:13 10° SSW 22:14:19 30° W 22:18:26 10° NNW
Cosmos 2297 3.7 22:10:24 10° NNW 22:16:07 83° ENE 22:21:47 10° SSE
Cosmos 1867 3.6 22:11:57 10° NNW 22:17:22 58° NE 22:22:41 10° SE
COSMO-SKYMED 1 3.6 22:15:32 10° NE 22:19:12 26° E 22:22:50 10° SSE
Cosmos 614 Rocket 3.9 22:14:37 10° SSW 22:19:43 88° ESE 22:24:49 10° NNE
YAOGAN 1 3.9 22:17:27 10° ESE 22:20:22 18° ENE 22:23:18 10° NNE
Cosmos 2195 Rocket 4.5 22:14:56 10° S 22:21:10 79° E 22:27:30 10° N
Cosmos 1627 Rocket 4.4 22:16:53 10° S 22:22:57 75° E 22:29:07 10° N
Cosmos 1190 Rocket 3.9 22:18:30 10° SSW 22:23:41 79° ESE 22:28:53 10° NNE
IRS-1C Rocket 4.2 22:19:30 10° SSE 22:24:46 83° WSW 22:30:05 10° NNW
Okean 3 4.4 22:22:09 10° SE 22:25:36 26° E 22:28:20 14° NE
Cosmos 676 Rocket 4.2 22:21:48 10° S 22:26:46 49° ESE 22:31:46 10° NNE
Cosmos 921 Rocket 3.1 22:22:27 10° NNW 22:26:48 83° WSW 22:31:10 10° SSE
Okean-O 2.7 22:24:40 10° SSE 22:28:59 55° ENE 22:33:19 10° N
Cosmos 1954 Rocket 4.1 22:26:59 10° S 22:31:58 52° ESE 22:36:51 11° NNE
Aureole 3 Rocket 3.8 22:32:52 19° E 22:32:52 19° E 22:34:38 10° SE
Cosmos 1092 Rocket 4.4 22:29:12 10° SSW 22:35:26 68° W 22:41:41 10° N
STARLINK-67 4.0 22:34:19 10° NNW 22:36:32 21° NNE 22:36:35 21° NNE
STARLINK-43 3.9 22:33:23 10° WSW 22:37:00 50° NNW 22:39:19 20° NE
USA 215 3.5 22:32:10 12° NE 22:38:07 64° NW 22:44:34 10° WSW
Cosmos 1743 2.6 22:36:07 10° N 22:40:00 83° ENE 22:43:54 10° S
Meteor 2-9 Rocket 4.4 22:35:48 10° N 22:41:29 50° ENE 22:47:01 10° SSE
Cosmos 1655 Rocket 4.2 22:37:56 10° SSE 22:43:56 49° E 22:49:56 10° NNE
Cosmos 1943 3.8 22:40:46 10° SSE 22:45:46 34° ESE 22:48:25 23° ENE
STARLINK-61 4.3 22:43:55 10° SSW 22:47:37 37° SE 22:49:00 28° E
Cosmos 1140 Rocket 3.6 22:43:49 10° SSW 22:48:57 78° WNW 22:54:07 10° NNE
STARLINK-26 4.2 22:46:59 10° SSW 22:50:07 31° SE 22:50:48 28° ESE
Cosmos 1461 3.8 22:50:05 10° S 22:53:21 26° ESE 22:53:25 26° ESE
Cosmos 2151 Rocket 3.8 22:52:36 10° N 22:56:48 42° ENE 23:00:58 10° SSE
Envisat 3.0 22:51:59 10° SSE 22:57:04 84° WSW 23:02:11 10° NNW
Cosmos 2369 Rocket 2.2 22:53:35 10° NNW 22:59:08 55° ENE 23:04:41 10° SE
Lacrosse 5 rocket 3.7 23:00:18 10° NNW 23:01:23 11° N 23:02:10 10° N
STARLINK-80 3.8 22:58:40 10° WSW 23:02:25 55° NNW 23:03:41 35° NNE
IRIDIUM 103 4.5 22:59:26 10° SSE 23:04:25 48° E 23:08:55 13° NNE
STARLINK-74 4.5 23:00:54 10° SSW 23:04:26 31° SE 23:04:42 30° SE
Cosmos 468 Rocket 4.5 23:00:01 10° N 23:04:48 36° ENE 23:05:39 34° E
SL-16 R/B 3.5 23:00:46 10° SW 23:06:02 38° WNW 23:11:20 10° N
SL-4 R/B 2.7 23:02:32 10° NW 23:06:05 33° NNE 23:06:12 33° NNE
STARLINK-39 4.4 23:02:32 10° SSW 23:06:07 32° SE 23:06:19 32° SE
SKYMED 2 3.5 23:03:50 15° NNE 23:07:28 86° ESE 23:11:48 10° SSW
STARLINK 4.4 23:04:08 10° SSW 23:07:44 33° SE 23:07:54 33° SE
USA 81 4.4 23:03:28 10° SSE 23:08:19 39° E 23:09:31 34° ENE
STARLINK-42 4.3 23:06:05 10° SSW 23:09:47 36° SE 23:09:56 36° SE
STARLINK-21 4.3 23:07:23 10° SSW 23:11:04 35° SE 23:11:07 35° SE
USA 267 3.2 23:04:44 10° SE 23:11:17 89° SSW 23:17:52 10° NW
S3M 3.8 23:06:37 10° N 23:12:49 78° E 23:18:56 10° SSE
STARLINK-45 4.1 23:09:08 10° SSW 23:12:55 41° SE 23:13:01 41° SE
Cosmos 2266 Rocket 4.1 23:06:59 10° SSE 23:13:12 56° E 23:19:25 10° NNE
Cosmos 1603 3.6 23:07:34 10° SSW 23:13:16 77° ESE 23:16:39 26° NNE
Cosmos 405 Rocket 2.4 23:10:07 10° N 23:13:50 82° E 23:17:35 10° SSE
STARLINK-75 3.9 23:11:04 10° SSW 23:14:53 44° SE 23:14:59 44° SE
STARLINK-76 4.2 23:12:15 10° SSW 23:15:53 39° SE 23:15:53 39° SE
CZ-4 R/B 4.4 23:12:30 10° SSE 23:16:40 85° WSW 23:20:52 10° NNW
Cosmos 1850 Rocket 4.1 23:11:36 10° S 23:16:41 54° ESE 23:18:05 41° ENE
Cosmos 1943 Rocket 2.1 23:11:04 10° NNW 23:16:44 90° WSW 23:22:18 10° SSE
NOSS 3-1 (C) 4.1 23:09:27 10° NNW 23:16:56 61° NE 23:23:58 16° SE
STARLINK 4.1 23:13:52 10° SSW 23:17:28 40° SE 23:17:28 40° SE
NOAA 15 4.4 23:12:32 10° SSE 23:17:45 75° ENE 23:23:00 10° N
STARLINK-32 4.1 23:15:28 10° SSW 23:19:02 41° SE 23:19:02 41° SE
STARLINK-40 4.1 23:17:09 10° SSW 23:20:42 42° SSE 23:20:42 42° SSE
FengYun 1-2 T 4.4 23:16:01 10° S 23:21:29 73° WSW 23:27:01 10° NNW
STARLINK-44 4.1 23:18:41 10° SSW 23:22:11 43° SSE 23:22:11 43° SSE
IRIDIUM 106 4.2 23:17:29 10° S 23:22:39 71° E 23:27:06 14° N
Cosmos 1553 Rocket 4.3 23:16:22 10° NNW 23:22:43 69° W 23:29:04 10° S
Okean 2 Rocket 3.5 23:18:42 10° NNW 23:23:09 64° W 23:27:37 10° S
Lacrosse 5 1.8 23:18:28 10° SW 23:23:34 86° NW 23:25:02 48° NE
Cosmos 2084 Rocket 3.9 23:19:25 10° SSW 23:23:18 47° SE 23:23:18 47° SE
USA 116 4.2 23:20:36 21° NNE 23:24:04 80° ESE 23:28:51 10° S
STARLINK-37 4.0 23:20:28 10° SSW 23:24:00 47° SSE 23:24:00 47° SSE
STARLINK-36 4.1 23:22:03 10° SSW 23:25:28 45° SSE 23:25:28 45° SSE
Abrixas rocket 3.6 23:24:40 10° W 23:26:42 31° WNW 23:26:42 31° WNW
STARLINK-41 4.1 23:23:49 10° SSW 23:27:10 45° SSE 23:27:10 45° SSE
USA 229 DEB 3.8 23:21:13 10° NNW 23:28:29 70° NE 23:33:30 23° SE
USA 229 3.8 23:21:19 10° NNW 23:28:35 70° NE 23:33:29 24° SE
STARLINK-64 4.1 23:25:31 10° SSW 23:28:49 46° S 23:28:49 46° S
Uosat 12 SS-18 rocket 4.4 23:26:04 10° NW 23:30:39 65° WSW 23:33:06 24° SSE
CSL-04 Rocket 3.5 23:25:38 10° SSE 23:30:55 87° ENE 23:36:16 10° NNW
STARLINK-35 4.1 23:27:09 10° SW 23:30:26 47° S 23:30:26 47° S
STARLINK-51 4.1 23:28:32 10° SW 23:31:47 48° S 23:31:47 48° S
YAOGAN 6 4.0 23:29:42 10° SSW 23:33:02 38° W 23:36:27 10° NNW
NOSS 3-1 (A) 4.1 23:26:39 10° NNW 23:34:01 55° NE 23:36:50 39° E
STARLINK-30 4.1 23:30:28 10° SW 23:33:40 48° S 23:33:40 48° S
STARLINK-33 4.1 23:32:08 10° SW 23:35:17 48° S 23:35:17 48° S
CZ-4 R/B 2.0 23:32:21 10° S 23:36:08 53° W 23:39:54 10° NNW
CZ-4C R/B 2.0 23:31:50 10° SW 23:36:48 85° NW 23:38:14 51° NNE
STARLINK-50 4.2 23:33:45 10° SW 23:36:52 47° SSW 23:36:52 47° SSW
Meteor 2-4 Rocket 3.9 23:32:53 10° SSW 23:38:44 74° W 23:43:36 15° N
STARLINK 4.4 23:35:11 10° SW 23:38:06 42° S 23:38:06 42° S
STARLINK-56 4.3 23:36:46 10° SW 23:39:46 46° SSW 23:39:46 46° SSW
Starlink (trailer) 4.3 23:38:40 10° SW 23:41:37 45° SSW 23:41:37 45° SSW
STARLINK-38 4.4 23:40:20 10° SW 23:43:13 45° SSW 23:43:13 45° SSW
Cosmos 1674 Rocket 3.6 23:41:00 10° S 23:45:04 73° SW 23:45:04 73° SW
STARLINK-65 4.4 23:41:55 10° SW 23:44:45 44° SSW 23:44:45 44° SSW
Cosmos 1763 Rocket 4.3 23:45:04 10° NNW 23:48:08 36° N 23:48:08 36° N
Gbstr 26 Del rocket 3.8 23:44:39 10° WSW 23:51:47 78° NNW 23:52:46 64° NNE
BREEZE-M R/B 4.4 23:48:36 10° WNW 23:50:44 27° WNW 23:50:44 27° WNW
CZ-3B R/B 3.7 23:52:16 10° SSW 23:54:49 15° SSE 23:54:49 15° SSE
COSMO-SKYMED 1 4.4 23:52:24 15° NNW 23:55:19 29° WNW 23:59:03 10° SW
